Time,TemperatureF,DewpointF,PressureIn,WindDirection,WindDirectionDegrees,WindSpeedMPH,WindSpeedGustMPH,Humidity,HourlyPrecipIn,Conditions,Clouds,dailyrainin,SoftwareType,DateUTC
2013-03-23 00:00:00,35.3,24.7,29.75,NW,312,5.0,8.0,65,0.00,,,0.36,LWC V2.10 B1702,2013-03-23 04:00:00,
2013-03-23 00:01:00,35.2,24.6,29.75,NNW,333,2.0,8.0,65,0.00,,,0.00,LWC V2.10 B1702,2013-03-23 04:01:00,
2013-03-23 00:06:00,35.1,24.5,29.75,NW,314,3.0,8.0,65,0.00,,,0.00,LWC V2.10 B1702,2013-03-23 04:06:00,
2013-03-23 00:11:00,34.9,24.7,29.75,NNW,344,2.0,7.0,66,0.00,,,0.00,LWC V2.10 B1702,2013-03-23 04:11:00,
2013-03-23 00:16:00,34.8,23.9,29.75,WNW,303,7.0,11.0,64,0.00,,,0.00,LWC V2.10 B1702,2013-03-23 04:16:00,
2013-03-23 00:21:00,34.7,24.2,29.75,NNW,327,0.0,6.0,65,0.00,,,0.00,LWC V2.10 B1702,2013-03-23 04:21:00,
2013-03-23 00:26:00,34.6,24.1,29.75,NNW,330,4.0,9.0,65,0.00,,,0.00,LWC V2.10 B1702,2013-03-23 04:26:00,
2013-03-23 00:31:00,34.6,24.1,29.75,NNW,329,3.0,8.0,65,0.00,,,0.00,LWC V2.10 B1702,2013-03-23 04:31:00,
2013-03-23 00:36:00,34.6,24.1,29.75,NW,326,3.0,3.0,65,0.00,,,0.00,LWC V2.10 B1702,2013-03-23 04:36:00,
2013-03-23 00:41:00,34.5,24.0,29.75,NNW,332,3.0,9.0,65,0.00,,,0.00,LWC V2.10 B1702,2013-03-23 04:41:00,
2013-03-23 00:46:00,34.4,24.2,29.75,North,5,4.0,11.0,66,0.00,,,0.00,LWC V2.10 B1702,2013-03-23 04:46:00,
2013-03-23 00:51:00,34.3,23.4,29.75,NNW,331,2.0,9.0,64,0.00,,,0.00,LWC V2.10 B1702,2013-03-23 04:51:00,
2013-03-23 00:56:00,34.2,23.7,29.75,WNW,284,8.0,11.0,65,0.00,,,0.00,LWC V2.10 B1702,2013-03-23 04:56:00,
2013-03-23 01:01:00,34.1,24.0,29.75,West,273,4.0,9.0,66,0.00,,,0.00,LWC V2.10 B1702,2013-03-23 05:01:00,
2013-03-23 01:06:00,34.0,23.9,29.75,WNW,298,3.0,15.0,66,0.00,,,0.00,LWC V2.10 B1702,2013-03-23 05:06:00,
2013-03-23 01:11:00,34.0,23.9,29.75,NNW,348,11.0,11.0,66,0.00,,,0.00,LWC V2.10 B1702,2013-03-23 05:11:00,
2013-03-23 01:16:00,33.9,23.8,29.75,NNW,342,6.0,7.0,66,0.00,,,0.00,LWC V2.10 B1702,2013-03-23 05:16:00,
2013-03-23 01:21:00,33.8,24.0,29.75,WNW,292,2.0,6.0,67,0.00,,,0.00,LWC V2.10 B1702,2013-03-23 05:21:00,
2013-03-23 01:26:00,33.7,23.6,29.75,West,267,5.0,11.0,66,0.00,,,0.00,LWC V2.10 B1702,2013-03-23 05:26:00,
2013-03-23 01:31:00,33.7,23.6,29.75,NNW,340,6.0,12.0,66,0.00,,,0.00,LWC V2.10 B1702,2013-03-23 05:31:00,
2013-03-23 01:36:00,33.7,23.9,29.75,WNW,288,9.0,9.0,67,0.00,,,0.00,LWC V2.10 B1702,2013-03-23 05:36:00,
2013-03-23 01:41:00,33.7,23.9,29.75,West,261,2.0,7.0,67,0.00,,,0.00,LWC V2.10 B1702,2013-03-23 05:41:00,
2013-03-23 01:46:00,33.6,23.8,29.75,NW,321,6.0,9.0,67,0.00,,,0.00,LWC V2.10 B1702,2013-03-23 05:46:00,
2013-03-23 01:51:00,33.5,23.7,29.75,NW,322,6.0,12.0,67,0.00,,,0.00,LWC V2.10 B1702,2013-03-23 05:51:00,
2013-03-23 01:56:00,33.5,23.7,29.75,NNW,336,8.0,13.0,67,0.00,,,0.00,LWC V2.10 B1702,2013-03-23 05:56:00,
2013-03-23 02:01:00,33.5,23.7,29.75,NW,317,6.0,10.0,67,0.00,,,0.00,LWC V2.10 B1702,2013-03-23 06:01:00,
2013-03-23 02:06:00,33.4,23.3,29.75,NW,315,1.0,12.0,66,0.00,,,0.00,LWC V2.10 B1702,2013-03-23 06:06:00,
2013-03-23 02:11:00,33.4,23.6,29.75,NNW,340,2.0,5.0,67,0.00,,,0.00,LWC V2.10 B1702,2013-03-23 06:11:00,
2013-03-23 02:16:00,33.4,23.3,29.75,NW,304,8.0,9.0,66,0.00,,,0.00,LWC V2.10 B1702,2013-03-23 06:16:00,
2013-03-23 02:21:00,33.4,23.3,29.75,NW,304,6.0,6.0,66,0.00,,,0.00,LWC V2.10 B1702,2013-03-23 06:21:00,
2013-03-23 02:26:00,33.3,23.5,29.75,NNW,330,4.0,9.0,67,0.00,,,0.00,LWC V2.10 B1702,2013-03-23 06:26:00,
2013-03-23 02:31:00,33.3,23.5,29.75,NW,315,3.0,9.0,67,0.00,,,0.00,LWC V2.10 B1702,2013-03-23 06:31:00,
2013-03-23 02:36:00,33.3,23.5,29.75,NW,319,5.0,10.0,67,0.00,,,0.00,LWC V2.10 B1702,2013-03-23 06:36:00,
2013-03-23 02:41:00,33.3,23.2,29.75,WNW,297,6.0,9.0,66,0.00,,,0.00,LWC V2.10 B1702,2013-03-23 06:41:00,
2013-03-23 02:46:00,33.3,23.2,29.75,WNW,302,6.0,8.0,66,0.00,,,0.00,LWC V2.10 B1702,2013-03-23 06:46:00,
2013-03-23 02:51:00,33.3,23.2,29.75,NW,319,5.0,10.0,66,0.00,,,0.00,LWC V2.10 B1702,2013-03-23 06:51:00,
2013-03-23 02:56:00,33.3,23.2,29.75,West,275,4.0,8.0,66,0.00,,,0.00,LWC V2.10 B1702,2013-03-23 06:56:00,
2013-03-23 03:01:00,33.2,23.1,29.75,NW,323,5.0,10.0,66,0.00,,,0.00,LWC V2.10 B1702,2013-03-23 07:01:00,
2013-03-23 03:06:00,33.2,23.1,29.75,NW,305,3.0,4.0,66,0.00,,,0.00,LWC V2.10 B1702,2013-03-23 07:06:00,
2013-03-23 03:11:00,33.2,23.1,29.75,West,266,3.0,8.0,66,0.00,,,0.00,LWC V2.10 B1702,2013-03-23 07:11:00,
2013-03-23 03:16:00,33.2,23.1,29.75,NNW,340,2.0,9.0,66,0.00,,,0.00,LWC V2.10 B1702,2013-03-23 07:16:00,
2013-03-23 03:21:00,33.2,23.4,29.74,NW,317,4.0,9.0,67,0.00,,,0.00,LWC V2.10 B1702,2013-03-23 07:21:00,
2013-03-23 03:26:00,33.1,23.4,29.75,WNW,289,3.0,8.0,67,0.00,,,0.00,LWC V2.10 B1702,2013-03-23 07:26:00,
2013-03-23 03:31:00,33.1,23.0,29.74,NW,320,1.0,7.0,66,0.00,,,0.00,LWC V2.10 B1702,2013-03-23 07:31:00,
2013-03-23 03:36:00,33.1,23.4,29.74,NW,309,1.0,11.0,67,0.00,,,0.00,LWC V2.10 B1702,2013-03-23 07:36:00,
2013-03-23 03:41:00,33.0,23.6,29.74,NNW,332,6.0,7.0,68,0.00,,,0.00,LWC V2.10 B1702,2013-03-23 07:41:00,
2013-03-23 03:46:00,33.0,22.9,29.74,NW,304,3.0,7.0,66,0.00,,,0.00,LWC V2.10 B1702,2013-03-23 07:46:00,
2013-03-23 03:51:00,33.0,23.3,29.74,NNW,347,13.0,13.0,67,0.00,,,0.00,LWC V2.10 B1702,2013-03-23 07:51:00,
2013-03-23 03:56:00,32.9,23.5,29.75,WNW,301,1.0,4.0,68,0.00,,,0.00,LWC V2.10 B1702,2013-03-23 07:56:00,
2013-03-23 04:01:00,32.8,23.4,29.74,West,278,4.0,9.0,68,0.00,,,0.00,LWC V2.10 B1702,2013-03-23 08:01:00,
2013-03-23 04:06:00,32.8,23.4,29.74,NNW,333,4.0,5.0,68,0.00,,,0.00,LWC V2.10 B1702,2013-03-23 08:06:00,
2013-03-23 04:11:00,32.7,23.7,29.74,WNW,302,1.0,11.0,69,0.00,,,0.00,LWC V2.10 B1702,2013-03-23 08:11:00,
2013-03-23 04:16:00,32.7,23.7,29.74,North,5,2.0,4.0,69,0.00,,,0.00,LWC V2.10 B1702,2013-03-23 08:16:00,
2013-03-23 04:21:00,32.6,23.6,29.74,NNW,331,2.0,5.0,69,0.00,,,0.00,LWC V2.10 B1702,2013-03-23 08:21:00,
2013-03-23 04:26:00,32.6,23.9,29.74,WNW,293,3.0,3.0,70,0.00,,,0.00,LWC V2.10 B1702,2013-03-23 08:26:00,
2013-03-23 04:31:00,32.5,23.8,29.74,NNW,328,3.0,7.0,70,0.00,,,0.00,LWC V2.10 B1702,2013-03-23 08:31:00,
2013-03-23 04:36:00,32.5,24.2,29.74,NW,308,4.0,9.0,71,0.00,,,0.00,LWC V2.10 B1702,2013-03-23 08:36:00,
2013-03-23 04:41:00,32.6,24.3,29.74,West,271,4.0,4.0,71,0.00,,,0.00,LWC V2.10 B1702,2013-03-23 08:41:00,
2013-03-23 04:46:00,32.7,24.4,29.74,NW,322,7.0,12.0,71,0.00,,,0.00,LWC V2.10 B1702,2013-03-23 08:46:00,
2013-03-23 04:51:00,32.8,24.1,29.74,WNW,292,7.0,7.0,70,0.00,,,0.00,LWC V2.10 B1702,2013-03-23 08:51:00,
2013-03-23 04:56:00,32.7,24.4,29.74,NW,315,11.0,11.0,71,0.00,,,0.00,LWC V2.10 B1702,2013-03-23 08:56:00,
2013-03-23 05:01:00,32.7,24.4,29.74,NW,322,6.0,10.0,71,0.00,,,0.00,LWC V2.10 B1702,2013-03-23 09:01:00,
2013-03-23 05:06:00,32.6,24.3,29.73,West,275,5.0,6.0,71,0.00,,,0.00,LWC V2.10 B1702,2013-03-23 09:06:00,
2013-03-23 05:11:00,32.6,24.6,29.73,NW,313,5.0,5.0,72,0.00,,,0.00,LWC V2.10 B1702,2013-03-23 09:11:00,
2013-03-23 05:16:00,32.5,24.5,29.74,WNW,298,3.0,6.0,72,0.00,,,0.00,LWC V2.10 B1702,2013-03-23 09:16:00,
2013-03-23 05:21:00,32.5,24.5,29.74,NW,316,1.0,3.0,72,0.00,,,0.00,LWC V2.10 B1702,2013-03-23 09:21:00,
2013-03-23 05:26:00,32.5,24.8,29.73,WNW,289,6.0,7.0,73,0.00,,,0.00,LWC V2.10 B1702,2013-03-23 09:26:00,
2013-03-23 05:31:00,32.6,24.6,29.74,WNW,283,2.0,9.0,72,0.00,,,0.00,LWC V2.10 B1702,2013-03-23 09:31:00,
2013-03-23 05:36:00,32.6,24.6,29.74,NW,308,6.0,6.0,72,0.00,,,0.00,LWC V2.10 B1702,2013-03-23 09:36:00,
2013-03-23 05:41:00,32.6,24.9,29.74,NW,308,3.0,7.0,73,0.00,,,0.00,LWC V2.10 B1702,2013-03-23 09:41:00,
2013-03-23 05:46:00,32.6,24.9,29.74,NNW,329,3.0,5.0,73,0.00,,,0.00,LWC V2.10 B1702,2013-03-23 09:46:00,
2013-03-23 05:51:00,32.5,25.2,29.74,WNW,286,3.0,4.0,74,0.00,,,0.00,LWC V2.10 B1702,2013-03-23 09:51:00,
2013-03-23 05:56:00,32.4,25.1,29.74,West,279,2.0,4.0,74,0.00,,,0.00,LWC V2.10 B1702,2013-03-23 09:56:00,
2013-03-23 06:01:00,32.4,24.7,29.74,NW,321,4.0,4.0,73,0.00,,,0.00,LWC V2.10 B1702,2013-03-23 10:01:00,
2013-03-23 06:06:00,32.5,25.2,29.74,NW,308,2.0,4.0,74,0.00,,,0.00,LWC V2.10 B1702,2013-03-23 10:06:00,
2013-03-23 06:11:00,32.5,25.2,29.74,NW,323,4.0,5.0,74,0.00,,,0.00,LWC V2.10 B1702,2013-03-23 10:11:00,
2013-03-23 06:16:00,32.5,25.2,29.74,WNW,289,3.0,6.0,74,0.00,,,0.00,LWC V2.10 B1702,2013-03-23 10:16:00,
2013-03-23 06:21:00,32.6,25.2,29.74,NW,304,2.0,6.0,74,0.00,,,0.00,LWC V2.10 B1702,2013-03-23 10:21:00,
2013-03-23 06:26:00,32.6,25.6,29.74,West,259,4.0,5.0,75,0.00,,,0.00,LWC V2.10 B1702,2013-03-23 10:26:00,
2013-03-23 06:31:00,32.6,25.2,29.74,WNW,285,8.0,8.0,74,0.00,,,0.00,LWC V2.10 B1702,2013-03-23 10:31:00,
2013-03-23 06:36:00,32.8,25.4,29.74,WNW,296,6.0,7.0,74,0.00,,,0.00,LWC V2.10 B1702,2013-03-23 10:36:00,
2013-03-23 06:41:00,32.8,25.4,29.74,WNW,300,6.0,6.0,74,0.00,,,0.00,LWC V2.10 B1702,2013-03-23 10:41:00,
2013-03-23 06:46:00,32.9,25.5,29.74,WNW,297,5.0,8.0,74,0.00,,,0.00,LWC V2.10 B1702,2013-03-23 10:46:00,
2013-03-23 06:51:00,32.9,25.9,29.74,WNW,282,3.0,8.0,75,0.00,,,0.00,LWC V2.10 B1702,2013-03-23 10:51:00,
2013-03-23 06:56:00,33.0,26.0,29.74,West,273,4.0,6.0,75,0.00,,,0.00,LWC V2.10 B1702,2013-03-23 10:56:00,
2013-03-23 07:01:00,33.0,26.0,29.74,West,273,5.0,8.0,75,0.00,,,0.00,LWC V2.10 B1702,2013-03-23 11:01:00,
2013-03-23 07:06:00,33.2,26.1,29.74,NW,313,3.0,6.0,75,0.00,,,0.00,LWC V2.10 B1702,2013-03-23 11:06:00,
2013-03-23 07:11:00,33.4,26.3,29.74,WNW,283,1.0,4.0,75,0.00,,,0.00,LWC V2.10 B1702,2013-03-23 11:11:00,
2013-03-23 07:16:00,33.4,26.3,29.74,NNW,334,2.0,7.0,75,0.00,,,0.00,LWC V2.10 B1702,2013-03-23 11:16:00,
2013-03-23 07:21:00,33.5,26.1,29.74,WNW,296,5.0,11.0,74,0.00,,,0.00,LWC V2.10 B1702,2013-03-23 11:21:00,
2013-03-23 07:26:00,33.7,26.3,29.74,WNW,283,2.0,7.0,74,0.00,,,0.00,LWC V2.10 B1702,2013-03-23 11:26:00,
2013-03-23 07:31:00,33.9,26.8,29.74,WNW,290,3.0,8.0,75,0.00,,,0.00,LWC V2.10 B1702,2013-03-23 11:31:00,
2013-03-23 07:36:00,33.9,26.8,29.74,NW,304,4.0,6.0,75,0.00,,,0.00,LWC V2.10 B1702,2013-03-23 11:36:00,
2013-03-23 07:41:00,34.0,26.9,29.74,WSW,257,5.0,8.0,75,0.00,,,0.00,LWC V2.10 B1702,2013-03-23 11:41:00,
2013-03-23 07:46:00,34.0,26.9,29.74,West,277,7.0,7.0,75,0.00,,,0.00,LWC V2.10 B1702,2013-03-23 11:46:00,
2013-03-23 07:51:00,34.0,26.9,29.74,WNW,284,5.0,6.0,75,0.00,,,0.00,LWC V2.10 B1702,2013-03-23 11:51:00,
2013-03-23 07:56:00,34.1,27.3,29.74,WNW,292,1.0,8.0,76,0.00,,,0.00,LWC V2.10 B1702,2013-03-23 11:56:00,
2013-03-23 08:01:00,34.2,27.1,29.74,WSW,256,5.0,8.0,75,0.00,,,0.00,LWC V2.10 B1702,2013-03-23 12:01:00,
2013-03-23 08:06:00,34.3,26.9,29.74,West,278,7.0,8.0,74,0.00,,,0.00,LWC V2.10 B1702,2013-03-23 12:06:00,
2013-03-23 08:11:00,34.5,27.4,29.74,WNW,282,4.0,7.0,75,0.00,,,0.00,LWC V2.10 B1702,2013-03-23 12:11:00,
2013-03-23 08:16:00,34.6,27.5,29.74,West,267,6.0,8.0,75,0.00,,,0.00,LWC V2.10 B1702,2013-03-23 12:16:00,
2013-03-23 08:21:00,34.9,27.5,29.73,WNW,289,7.0,8.0,74,0.00,,,0.00,LWC V2.10 B1702,2013-03-23 12:21:00,
2013-03-23 08:26:00,35.2,27.8,29.73,West,269,3.0,5.0,74,0.00,,,0.00,LWC V2.10 B1702,2013-03-23 12:26:00,
2013-03-23 08:31:00,35.4,27.6,29.73,WNW,282,4.0,8.0,73,0.00,,,0.00,LWC V2.10 B1702,2013-03-23 12:31:00,
2013-03-23 08:36:00,35.5,27.4,29.73,WSW,257,4.0,8.0,72,0.00,,,0.00,LWC V2.10 B1702,2013-03-23 12:36:00,
2013-03-23 08:41:00,35.7,27.6,29.72,WSW,242,1.0,8.0,72,0.00,,,0.00,LWC V2.10 B1702,2013-03-23 12:41:00,
2013-03-23 08:46:00,35.8,27.3,29.73,WNW,284,3.0,9.0,71,0.00,,,0.00,LWC V2.10 B1702,2013-03-23 12:46:00,
2013-03-23 08:51:00,36.0,27.9,29.72,West,279,5.0,10.0,72,0.00,,,0.00,LWC V2.10 B1702,2013-03-23 12:51:00,
2013-03-23 08:56:00,36.1,27.6,29.72,NW,304,4.0,7.0,71,0.00,,,0.00,LWC V2.10 B1702,2013-03-23 12:56:00,
2013-03-23 09:01:00,36.4,28.2,29.72,WNW,301,6.0,6.0,72,0.00,,,0.00,LWC V2.10 B1702,2013-03-23 13:01:00,
2013-03-23 09:06:00,36.6,28.1,29.72,West,265,5.0,7.0,71,0.00,,,0.00,LWC V2.10 B1702,2013-03-23 13:06:00,
2013-03-23 09:11:00,36.8,27.9,29.72,WNW,302,4.0,8.0,70,0.00,,,0.00,LWC V2.10 B1702,2013-03-23 13:11:00,
2013-03-23 09:16:00,37.1,28.2,29.71,NW,306,2.0,8.0,70,0.00,,,0.00,LWC V2.10 B1702,2013-03-23 13:16:00,
2013-03-23 09:21:00,37.5,27.9,29.71,West,277,2.0,6.0,68,0.00,,,0.00,LWC V2.10 B1702,2013-03-23 13:21:00,
2013-03-23 09:26:00,38.1,28.5,29.71,West,262,4.0,7.0,68,0.00,,,0.00,LWC V2.10 B1702,2013-03-23 13:26:00,
2013-03-23 09:31:00,38.5,28.1,29.71,West,278,2.0,6.0,66,0.00,,,0.00,LWC V2.10 B1702,2013-03-23 13:31:00,
2013-03-23 09:36:00,38.9,28.5,29.71,NNW,342,1.0,5.0,66,0.00,,,0.00,LWC V2.10 B1702,2013-03-23 13:36:00,
2013-03-23 09:41:00,39.6,29.2,29.70,West,270,2.0,5.0,66,0.00,,,0.00,LWC V2.10 B1702,2013-03-23 13:41:00,
2013-03-23 09:46:00,40.0,28.0,29.70,NNW,343,4.0,8.0,62,0.00,,,0.00,LWC V2.10 B1702,2013-03-23 13:46:00,
2013-03-23 09:51:00,40.3,27.5,29.70,West,271,4.0,10.0,60,0.00,,,0.00,LWC V2.10 B1702,2013-03-23 13:51:00,
2013-03-23 09:56:00,40.4,27.2,29.71,NW,315,5.0,12.0,59,0.00,,,0.00,LWC V2.10 B1702,2013-03-23 13:56:00,
2013-03-23 10:01:00,40.4,26.8,29.70,WNW,294,5.0,10.0,58,0.00,,,0.00,LWC V2.10 B1702,2013-03-23 14:01:00,
2013-03-23 10:06:00,40.5,26.9,29.70,NW,314,2.0,10.0,58,0.00,,,0.00,LWC V2.10 B1702,2013-03-23 14:06:00,
2013-03-23 10:11:00,40.5,26.5,29.70,WNW,288,2.0,9.0,57,0.00,,,0.00,LWC V2.10 B1702,2013-03-23 14:11:00,
2013-03-23 10:16:00,40.5,26.9,29.70,WNW,296,2.0,7.0,58,0.00,,,0.00,LWC V2.10 B1702,2013-03-23 14:16:00,
2013-03-23 10:21:00,40.6,26.6,29.70,WNW,286,3.0,9.0,57,0.00,,,0.00,LWC V2.10 B1702,2013-03-23 14:21:00,
2013-03-23 10:26:00,40.4,25.5,29.70,WNW,286,7.0,13.0,55,0.00,,,0.00,LWC V2.10 B1702,2013-03-23 14:26:00,
2013-03-23 10:31:00,40.9,26.0,29.70,NW,325,5.0,10.0,55,0.00,,,0.00,LWC V2.10 B1702,2013-03-23 14:31:00,
2013-03-23 10:36:00,41.6,26.2,29.70,SW,232,6.0,10.0,54,0.00,,,0.00,LWC V2.10 B1702,2013-03-23 14:36:00,
2013-03-23 10:41:00,42.1,26.2,29.70,WNW,295,4.0,9.0,53,0.00,,,0.00,LWC V2.10 B1702,2013-03-23 14:41:00,
2013-03-23 10:46:00,42.0,27.0,29.70,NW,313,5.0,9.0,55,0.00,,,0.00,LWC V2.10 B1702,2013-03-23 14:46:00,
2013-03-23 10:51:00,42.2,25.9,29.69,NW,314,5.0,9.0,52,0.00,,,0.00,LWC V2.10 B1702,2013-03-23 14:51:00,
2013-03-23 10:56:00,42.2,25.9,29.69,NNW,329,5.0,7.0,52,0.00,,,0.00,LWC V2.10 B1702,2013-03-23 14:56:00,
2013-03-23 11:01:00,42.3,26.4,29.69,West,260,4.0,8.0,53,0.00,,,0.00,LWC V2.10 B1702,2013-03-23 15:01:00,
2013-03-23 11:06:00,41.6,25.3,29.69,WNW,297,11.0,11.0,52,0.00,,,0.00,LWC V2.10 B1702,2013-03-23 15:06:00,
2013-03-23 11:11:00,41.0,24.7,29.69,NW,320,6.0,11.0,52,0.00,,,0.00,LWC V2.10 B1702,2013-03-23 15:11:00,
2013-03-23 11:16:00,40.8,26.8,29.69,NW,323,5.0,10.0,57,0.00,,,0.00,LWC V2.10 B1702,2013-03-23 15:16:00,
2013-03-23 11:21:00,40.9,25.1,29.69,NNW,346,2.0,7.0,53,0.00,,,0.00,LWC V2.10 B1702,2013-03-23 15:21:00,
2013-03-23 11:26:00,41.1,26.6,29.69,WNW,292,4.0,11.0,56,0.00,,,0.00,LWC V2.10 B1702,2013-03-23 15:26:00,
2013-03-23 11:31:00,41.2,25.8,29.69,NW,325,6.0,8.0,54,0.00,,,0.00,LWC V2.10 B1702,2013-03-23 15:31:00,
2013-03-23 11:36:00,41.1,26.2,29.69,North,355,3.0,9.0,55,0.00,,,0.00,LWC V2.10 B1702,2013-03-23 15:36:00,
2013-03-23 11:41:00,40.9,25.6,29.69,NW,323,2.0,10.0,54,0.00,,,0.00,LWC V2.10 B1702,2013-03-23 15:41:00,
2013-03-23 11:46:00,40.9,25.1,29.69,NNW,327,4.0,6.0,53,0.00,,,0.00,LWC V2.10 B1702,2013-03-23 15:46:00,
2013-03-23 11:51:00,40.7,24.9,29.69,NW,325,10.0,12.0,53,0.00,,,0.00,LWC V2.10 B1702,2013-03-23 15:51:00,
2013-03-23 11:56:00,40.9,24.2,29.69,North,350,6.0,7.0,51,0.00,,,0.00,LWC V2.10 B1702,2013-03-23 15:56:00,
2013-03-23 12:01:00,41.1,24.4,29.69,NW,304,1.0,8.0,51,0.00,,,0.00,LWC V2.10 B1702,2013-03-23 16:01:00,
2013-03-23 12:06:00,41.0,24.7,29.69,NNW,330,4.0,13.0,52,0.00,,,0.00,LWC V2.10 B1702,2013-03-23 16:06:00,
2013-03-23 12:11:00,40.8,24.1,29.68,NW,304,5.0,10.0,51,0.00,,,0.00,LWC V2.10 B1702,2013-03-23 16:11:00,
2013-03-23 12:16:00,41.1,23.9,29.68,NNW,337,2.0,8.0,50,0.00,,,0.00,LWC V2.10 B1702,2013-03-23 16:16:00,
2013-03-23 12:21:00,41.0,23.8,29.68,NNW,348,4.0,14.0,50,0.00,,,0.00,LWC V2.10 B1702,2013-03-23 16:21:00,
2013-03-23 12:26:00,41.1,23.9,29.68,NW,311,5.0,11.0,50,0.00,,,0.00,LWC V2.10 B1702,2013-03-23 16:26:00,
2013-03-23 12:31:00,41.2,24.5,29.68,NNW,343,9.0,10.0,51,0.00,,,0.00,LWC V2.10 B1702,2013-03-23 16:31:00,
2013-03-23 12:36:00,41.4,24.2,29.68,WNW,302,5.0,8.0,50,0.00,,,0.00,LWC V2.10 B1702,2013-03-23 16:36:00,
2013-03-23 12:42:00,41.5,24.3,29.68,WNW,284,5.0,10.0,50,0.00,,,0.00,LWC V2.10 B1702,2013-03-23 16:42:00,
2013-03-23 12:47:00,41.9,25.1,29.68,NW,305,6.0,13.0,51,0.00,,,0.00,LWC V2.10 B1702,2013-03-23 16:47:00,
2013-03-23 12:52:00,42.3,25.0,29.68,North,355,8.0,10.0,50,0.00,,,0.00,LWC V2.10 B1702,2013-03-23 16:52:00,
2013-03-23 12:56:00,43.4,25.0,29.68,WNW,301,13.0,14.0,48,0.00,,,0.00,LWC V2.10 B1702,2013-03-23 16:56:00,
2013-03-23 13:01:00,43.9,26.5,29.68,NW,317,8.0,12.0,50,0.00,,,0.00,LWC V2.10 B1702,2013-03-23 17:01:00,
2013-03-23 13:06:00,44.3,23.8,29.67,NNW,334,9.0,11.0,44,0.00,,,0.00,LWC V2.10 B1702,2013-03-23 17:06:00,
2013-03-23 13:11:00,44.7,24.7,29.67,NW,318,6.0,13.0,45,0.00,,,0.00,LWC V2.10 B1702,2013-03-23 17:11:00,
2013-03-23 13:16:00,44.7,24.1,29.67,West,277,5.0,9.0,44,0.00,,,0.00,LWC V2.10 B1702,2013-03-23 17:16:00,
2013-03-23 13:21:00,45.0,25.0,29.67,WNW,303,4.0,9.0,45,0.00,,,0.00,LWC V2.10 B1702,2013-03-23 17:21:00,
2013-03-23 13:27:00,45.5,26.5,29.67,WNW,290,5.0,7.0,47,0.00,,,0.00,LWC V2.10 B1702,2013-03-23 17:27:00,
2013-03-23 13:31:00,45.4,25.8,29.67,WNW,294,4.0,10.0,46,0.00,,,0.00,LWC V2.10 B1702,2013-03-23 17:31:00,
2013-03-23 13:37:00,45.4,26.4,29.66,WNW,286,3.0,10.0,47,0.00,,,0.00,LWC V2.10 B1702,2013-03-23 17:37:00,
2013-03-23 13:42:00,45.3,24.7,29.67,NW,304,5.0,9.0,44,0.00,,,0.00,LWC V2.10 B1702,2013-03-23 17:42:00,
2013-03-23 13:47:00,45.5,25.4,29.67,NNW,329,7.0,7.0,45,0.00,,,0.00,LWC V2.10 B1702,2013-03-23 17:47:00,
2013-03-23 13:52:00,45.0,25.0,29.67,WNW,283,8.0,11.0,45,0.00,,,0.00,LWC V2.10 B1702,2013-03-23 17:52:00,
2013-03-23 13:57:00,45.0,24.4,29.67,WNW,302,7.0,8.0,44,0.00,,,0.00,LWC V2.10 B1702,2013-03-23 17:57:00,
2013-03-23 14:02:00,45.1,25.6,29.67,WNW,303,12.0,17.0,46,0.00,,,0.00,LWC V2.10 B1702,2013-03-23 18:02:00,
2013-03-23 14:07:00,45.4,25.8,29.67,WNW,282,9.0,11.0,46,0.00,,,0.00,LWC V2.10 B1702,2013-03-23 18:07:00,
2013-03-23 14:12:00,45.7,24.5,29.66,WNW,282,4.0,11.0,43,0.00,,,0.00,LWC V2.10 B1702,2013-03-23 18:12:00,
2013-03-23 14:17:00,45.6,24.4,29.66,WNW,290,6.0,11.0,43,0.00,,,0.00,LWC V2.10 B1702,2013-03-23 18:17:00,
2013-03-23 14:22:00,46.0,23.6,29.66,NNW,338,4.0,10.0,41,0.00,,,0.00,LWC V2.10 B1702,2013-03-23 18:22:00,
2013-03-23 14:26:00,45.9,24.1,29.66,WNW,302,2.0,11.0,42,0.00,,,0.00,LWC V2.10 B1702,2013-03-23 18:26:00,
2013-03-23 14:31:00,46.0,23.6,29.66,NNW,333,8.0,10.0,41,0.00,,,0.00,LWC V2.10 B1702,2013-03-23 18:31:00,
2013-03-23 14:36:00,45.8,22.9,29.66,West,269,6.0,13.0,40,0.00,,,0.00,LWC V2.10 B1702,2013-03-23 18:36:00,
2013-03-23 14:41:00,45.4,22.5,29.66,WNW,294,6.0,8.0,40,0.00,,,0.00,LWC V2.10 B1702,2013-03-23 18:41:00,
2013-03-23 14:46:00,45.8,24.6,29.66,NNW,346,6.0,11.0,43,0.00,,,0.00,LWC V2.10 B1702,2013-03-23 18:46:00,
2013-03-23 14:51:00,46.1,24.3,29.66,NW,326,13.0,16.0,42,0.00,,,0.00,LWC V2.10 B1702,2013-03-23 18:51:00,
2013-03-23 14:56:00,45.9,23.5,29.66,NNW,343,6.0,8.0,41,0.00,,,0.00,LWC V2.10 B1702,2013-03-23 18:56:00,
2013-03-23 15:01:00,45.6,23.8,29.66,NW,306,7.0,10.0,42,0.00,,,0.00,LWC V2.10 B1702,2013-03-23 19:01:00,
2013-03-23 15:06:00,45.2,24.0,29.65,NNW,340,7.0,9.0,43,0.00,,,0.00,LWC V2.10 B1702,2013-03-23 19:06:00,
2013-03-23 15:11:00,45.3,24.1,29.65,West,270,6.0,12.0,43,0.00,,,0.00,LWC V2.10 B1702,2013-03-23 19:11:00,
2013-03-23 15:16:00,45.5,23.8,29.65,NNW,338,7.0,9.0,42,0.00,,,0.00,LWC V2.10 B1702,2013-03-23 19:16:00,
2013-03-23 15:21:00,45.9,23.0,29.65,NW,322,7.0,11.0,40,0.00,,,0.00,LWC V2.10 B1702,2013-03-23 19:21:00,
2013-03-23 15:26:00,45.5,23.2,29.65,SW,233,2.0,9.0,41,0.00,,,0.00,LWC V2.10 B1702,2013-03-23 19:26:00,
2013-03-23 15:31:00,45.3,23.0,29.65,NW,318,5.0,12.0,41,0.00,,,0.00,LWC V2.10 B1702,2013-03-23 19:31:00,
2013-03-23 15:36:00,45.6,23.8,29.65,NW,315,4.0,16.0,42,0.00,,,0.00,LWC V2.10 B1702,2013-03-23 19:36:00,
2013-03-23 15:41:00,45.9,24.1,29.65,NW,307,11.0,11.0,42,0.00,,,0.00,LWC V2.10 B1702,2013-03-23 19:41:00,
2013-03-23 15:46:00,45.7,24.5,29.65,NW,326,5.0,11.0,43,0.00,,,0.00,LWC V2.10 B1702,2013-03-23 19:46:00,
2013-03-23 15:51:00,45.7,24.5,29.65,WNW,287,7.0,15.0,43,0.00,,,0.00,LWC V2.10 B1702,2013-03-23 19:51:00,
2013-03-23 15:56:00,45.7,23.4,29.65,NW,309,5.0,16.0,41,0.00,,,0.00,LWC V2.10 B1702,2013-03-23 19:56:00,
2013-03-23 16:01:00,45.4,23.1,29.65,NW,317,5.0,11.0,41,0.00,,,0.00,LWC V2.10 B1702,2013-03-23 20:01:00,
2013-03-23 16:06:00,45.8,24.0,29.65,WNW,288,3.0,7.0,42,0.00,,,0.00,LWC V2.10 B1702,2013-03-23 20:06:00,
2013-03-23 16:11:00,45.9,23.0,29.65,WSW,252,6.0,15.0,40,0.00,,,0.00,LWC V2.10 B1702,2013-03-23 20:11:00,
2013-03-23 16:16:00,46.1,22.5,29.65,WNW,294,8.0,13.0,39,0.00,,,0.00,LWC V2.10 B1702,2013-03-23 20:16:00,
2013-03-23 16:21:00,45.4,21.9,29.65,NW,323,5.0,11.0,39,0.00,,,0.00,LWC V2.10 B1702,2013-03-23 20:21:00,
2013-03-23 16:26:00,44.7,21.9,29.65,WNW,302,4.0,9.0,40,0.00,,,0.00,LWC V2.10 B1702,2013-03-23 20:26:00,
2013-03-23 16:31:00,45.0,23.3,29.65,NW,325,9.0,11.0,42,0.00,,,0.00,LWC V2.10 B1702,2013-03-23 20:31:00,
2013-03-23 16:36:00,44.9,23.2,29.65,NW,307,7.0,9.0,42,0.00,,,0.00,LWC V2.10 B1702,2013-03-23 20:36:00,
2013-03-23 16:41:00,44.3,22.1,29.65,NNW,336,4.0,11.0,41,0.00,,,0.00,LWC V2.10 B1702,2013-03-23 20:41:00,
2013-03-23 16:46:00,44.3,22.7,29.65,NNW,337,8.0,11.0,42,0.00,,,0.00,LWC V2.10 B1702,2013-03-23 20:46:00,
2013-03-23 16:52:00,44.3,22.1,29.65,WNW,303,2.0,8.0,41,0.00,,,0.00,LWC V2.10 B1702,2013-03-23 20:52:00,
2013-03-23 16:57:00,44.7,23.0,29.65,WNW,303,15.0,15.0,42,0.00,,,0.00,LWC V2.10 B1702,2013-03-23 20:57:00,
2013-03-23 17:02:00,44.5,22.3,29.66,NW,320,10.0,13.0,41,0.00,,,0.00,LWC V2.10 B1702,2013-03-23 21:02:00,
2013-03-23 17:07:00,44.2,22.0,29.66,North,9,11.0,11.0,41,0.00,,,0.00,LWC V2.10 B1702,2013-03-23 21:07:00,
2013-03-23 17:12:00,44.0,23.0,29.66,NNW,327,4.0,10.0,43,0.00,,,0.00,LWC V2.10 B1702,2013-03-23 21:12:00,
2013-03-23 17:17:00,43.8,22.8,29.66,NW,315,11.0,11.0,43,0.00,,,0.00,LWC V2.10 B1702,2013-03-23 21:17:00,
2013-03-23 17:22:00,43.6,22.0,29.66,WNW,298,5.0,12.0,42,0.00,,,0.00,LWC V2.10 B1702,2013-03-23 21:22:00,
2013-03-23 17:27:00,43.7,21.6,29.66,WNW,301,12.0,14.0,41,0.00,,,0.00,LWC V2.10 B1702,2013-03-23 21:27:00,
2013-03-23 17:32:00,43.8,22.2,29.66,WNW,303,11.0,12.0,42,0.00,,,0.00,LWC V2.10 B1702,2013-03-23 21:32:00,
2013-03-23 17:37:00,43.5,21.4,29.67,NW,323,4.0,15.0,41,0.00,,,0.00,LWC V2.10 B1702,2013-03-23 21:37:00,
2013-03-23 17:42:00,43.2,21.7,29.67,NNW,347,8.0,11.0,42,0.00,,,0.00,LWC V2.10 B1702,2013-03-23 21:42:00,
2013-03-23 17:47:00,42.9,22.0,29.67,North,5,7.0,13.0,43,0.00,,,0.00,LWC V2.10 B1702,2013-03-23 21:47:00,
2013-03-23 17:52:00,42.7,22.9,29.67,West,261,4.0,9.0,45,0.00,,,0.00,LWC V2.10 B1702,2013-03-23 21:52:00,
2013-03-23 17:57:00,42.6,22.2,29.68,NW,311,3.0,11.0,44,0.00,,,0.00,LWC V2.10 B1702,2013-03-23 21:57:00,
2013-03-23 18:02:00,42.5,22.1,29.68,WNW,286,11.0,11.0,44,0.00,,,0.00,LWC V2.10 B1702,2013-03-23 22:02:00,
2013-03-23 18:07:00,42.3,22.5,29.68,NNW,328,4.0,15.0,45,0.00,,,0.00,LWC V2.10 B1702,2013-03-23 22:07:00,
2013-03-23 18:12:00,42.2,21.9,29.68,WNW,297,10.0,10.0,44,0.00,,,0.00,LWC V2.10 B1702,2013-03-23 22:12:00,
2013-03-23 18:17:00,42.2,22.9,29.68,NW,323,7.0,11.0,46,0.00,,,0.00,LWC V2.10 B1702,2013-03-23 22:17:00,
2013-03-23 18:22:00,42.1,23.3,29.68,WNW,298,4.0,8.0,47,0.00,,,0.00,LWC V2.10 B1702,2013-03-23 22:22:00,
2013-03-23 18:27:00,41.9,22.6,29.68,WNW,301,6.0,7.0,46,0.00,,,0.00,LWC V2.10 B1702,2013-03-23 22:27:00,
2013-03-23 18:32:00,41.7,23.5,29.68,NNW,339,6.0,10.0,48,0.00,,,0.00,LWC V2.10 B1702,2013-03-23 22:32:00,
2013-03-23 18:37:00,41.5,23.3,29.69,NNW,329,10.0,10.0,48,0.00,,,0.00,LWC V2.10 B1702,2013-03-23 22:37:00,
2013-03-23 18:42:00,41.3,22.6,29.69,NNW,332,11.0,11.0,47,0.00,,,0.00,LWC V2.10 B1702,2013-03-23 22:42:00,
2013-03-23 18:47:00,41.3,22.6,29.69,NNW,334,4.0,7.0,47,0.00,,,0.00,LWC V2.10 B1702,2013-03-23 22:47:00,
2013-03-23 18:52:00,41.1,22.4,29.70,NNW,334,3.0,11.0,47,0.00,,,0.00,LWC V2.10 B1702,2013-03-23 22:52:00,
2013-03-23 18:57:00,41.0,22.8,29.70,WNW,301,3.0,11.0,48,0.00,,,0.00,LWC V2.10 B1702,2013-03-23 22:57:00,
2013-03-23 19:02:00,40.9,22.7,29.70,NW,325,10.0,11.0,48,0.00,,,0.00,LWC V2.10 B1702,2013-03-23 23:02:00,
2013-03-23 19:07:00,40.8,22.6,29.71,NW,316,8.0,16.0,48,0.00,,,0.00,LWC V2.10 B1702,2013-03-23 23:07:00,
2013-03-23 19:12:00,40.7,23.0,29.71,NW,315,6.0,10.0,49,0.00,,,0.00,LWC V2.10 B1702,2013-03-23 23:12:00,
2013-03-23 19:17:00,40.7,23.0,29.71,NW,308,2.0,14.0,49,0.00,,,0.00,LWC V2.10 B1702,2013-03-23 23:17:00,
2013-03-23 19:22:00,40.5,23.8,29.72,NW,316,1.0,7.0,51,0.00,,,0.00,LWC V2.10 B1702,2013-03-23 23:22:00,
2013-03-23 19:27:00,40.3,23.2,29.72,WNW,287,6.0,7.0,50,0.00,,,0.00,LWC V2.10 B1702,2013-03-23 23:27:00,
2013-03-23 19:32:00,40.2,23.1,29.72,WNW,290,1.0,7.0,50,0.00,,,0.00,LWC V2.10 B1702,2013-03-23 23:32:00,
2013-03-23 19:37:00,40.0,24.3,29.72,West,278,6.0,6.0,53,0.00,,,0.00,LWC V2.10 B1702,2013-03-23 23:37:00,
2013-03-23 19:42:00,40.0,23.8,29.72,West,278,6.0,10.0,52,0.00,,,0.00,LWC V2.10 B1702,2013-03-23 23:42:00,
2013-03-23 19:47:00,39.9,23.7,29.73,NW,316,4.0,12.0,52,0.00,,,0.00,LWC V2.10 B1702,2013-03-23 23:47:00,
2013-03-23 19:52:00,39.9,23.3,29.73,NW,320,7.0,8.0,51,0.00,,,0.00,LWC V2.10 B1702,2013-03-23 23:52:00,
2013-03-23 19:57:00,39.9,23.3,29.73,NW,323,9.0,10.0,51,0.00,,,0.00,LWC V2.10 B1702,2013-03-23 23:57:00,
2013-03-23 20:02:00,39.9,23.7,29.73,NNW,330,4.0,7.0,52,0.00,,,0.00,LWC V2.10 B1702,2013-03-24 00:02:00,
2013-03-23 20:07:00,39.8,23.2,29.74,NNW,339,3.0,7.0,51,0.00,,,0.00,LWC V2.10 B1702,2013-03-24 00:07:00,
2013-03-23 20:12:00,39.6,23.0,29.74,NNW,340,6.0,9.0,51,0.00,,,0.00,LWC V2.10 B1702,2013-03-24 00:12:00,
2013-03-23 20:17:00,39.6,23.0,29.74,NW,309,5.0,7.0,51,0.00,,,0.00,LWC V2.10 B1702,2013-03-24 00:17:00,
2013-03-23 20:22:00,39.6,23.4,29.74,NW,325,9.0,9.0,52,0.00,,,0.00,LWC V2.10 B1702,2013-03-24 00:22:00,
2013-03-23 20:27:00,39.6,23.4,29.75,NW,313,2.0,7.0,52,0.00,,,0.00,LWC V2.10 B1702,2013-03-24 00:27:00,
2013-03-23 20:32:00,39.6,23.4,29.75,WNW,291,6.0,8.0,52,0.00,,,0.00,LWC V2.10 B1702,2013-03-24 00:32:00,
2013-03-23 20:37:00,39.5,23.8,29.75,NW,322,5.0,8.0,53,0.00,,,0.00,LWC V2.10 B1702,2013-03-24 00:37:00,
2013-03-23 20:42:00,39.4,24.2,29.76,North,350,8.0,8.0,54,0.00,,,0.00,LWC V2.10 B1702,2013-03-24 00:42:00,
2013-03-23 20:47:00,39.4,23.7,29.76,WNW,300,3.0,6.0,53,0.00,,,0.00,LWC V2.10 B1702,2013-03-24 00:47:00,
2013-03-23 20:52:00,39.3,24.9,29.76,NNW,334,3.0,6.0,56,0.00,,,0.00,LWC V2.10 B1702,2013-03-24 00:52:00,
2013-03-23 20:57:00,39.1,24.7,29.76,NW,316,3.0,6.0,56,0.00,,,0.00,LWC V2.10 B1702,2013-03-24 00:57:00,
2013-03-23 21:02:00,39.1,24.7,29.76,NW,319,3.0,7.0,56,0.00,,,0.00,LWC V2.10 B1702,2013-03-24 01:02:00,
2013-03-23 21:07:00,38.9,24.1,29.76,NW,314,4.0,4.0,55,0.00,,,0.00,LWC V2.10 B1702,2013-03-24 01:07:00,
2013-03-23 21:12:00,38.8,24.0,29.76,NW,313,7.0,7.0,55,0.00,,,0.00,LWC V2.10 B1702,2013-03-24 01:12:00,
2013-03-23 21:17:00,38.7,23.9,29.77,WNW,291,2.0,8.0,55,0.00,,,0.00,LWC V2.10 B1702,2013-03-24 01:17:00,
2013-03-23 21:22:00,38.7,23.9,29.77,NNW,328,4.0,7.0,55,0.00,,,0.00,LWC V2.10 B1702,2013-03-24 01:22:00,
2013-03-23 21:27:00,38.7,24.4,29.77,NW,317,4.0,5.0,56,0.00,,,0.00,LWC V2.10 B1702,2013-03-24 01:27:00,
2013-03-23 21:32:00,38.6,24.3,29.77,WNW,283,2.0,6.0,56,0.00,,,0.00,LWC V2.10 B1702,2013-03-24 01:32:00,
2013-03-23 21:37:00,38.6,24.3,29.77,NW,315,3.0,7.0,56,0.00,,,0.00,LWC V2.10 B1702,2013-03-24 01:37:00,
2013-03-23 21:42:00,38.5,23.8,29.77,NNW,335,2.0,3.0,55,0.00,,,0.00,LWC V2.10 B1702,2013-03-24 01:42:00,
2013-03-23 21:47:00,38.4,23.7,29.77,WNW,291,2.0,4.0,55,0.00,,,0.00,LWC V2.10 B1702,2013-03-24 01:47:00,
2013-03-23 21:52:00,38.3,24.0,29.77,NW,317,1.0,7.0,56,0.00,,,0.00,LWC V2.10 B1702,2013-03-24 01:52:00,
2013-03-23 21:57:00,38.3,24.4,29.77,NNW,333,4.0,9.0,57,0.00,,,0.00,LWC V2.10 B1702,2013-03-24 01:57:00,
2013-03-23 22:02:00,38.2,24.3,29.77,NNW,334,4.0,9.0,57,0.00,,,0.00,LWC V2.10 B1702,2013-03-24 02:02:00,
2013-03-23 22:07:00,38.1,24.6,29.78,WNW,286,4.0,5.0,58,0.00,,,0.00,LWC V2.10 B1702,2013-03-24 02:07:00,
2013-03-23 22:12:00,38.0,24.6,29.78,NNW,345,4.0,6.0,58,0.00,,,0.00,LWC V2.10 B1702,2013-03-24 02:12:00,
2013-03-23 22:17:00,38.0,24.6,29.78,WNW,300,5.0,9.0,58,0.00,,,0.00,LWC V2.10 B1702,2013-03-24 02:17:00,
2013-03-23 22:22:00,38.0,24.6,29.78,West,262,2.0,7.0,58,0.00,,,0.00,LWC V2.10 B1702,2013-03-24 02:22:00,
2013-03-23 22:27:00,38.0,25.0,29.78,WNW,303,5.0,6.0,59,0.00,,,0.00,LWC V2.10 B1702,2013-03-24 02:27:00,
2013-03-23 22:32:00,37.9,24.9,29.78,NNW,333,5.0,5.0,59,0.00,,,0.00,LWC V2.10 B1702,2013-03-24 02:32:00,
2013-03-23 22:37:00,37.8,24.4,29.78,NW,325,3.0,7.0,58,0.00,,,0.00,LWC V2.10 B1702,2013-03-24 02:37:00,
2013-03-23 22:42:00,37.8,24.8,29.77,WNW,299,3.0,6.0,59,0.00,,,0.00,LWC V2.10 B1702,2013-03-24 02:42:00,
2013-03-23 22:47:00,37.7,25.1,29.77,West,281,3.0,8.0,60,0.00,,,0.00,LWC V2.10 B1702,2013-03-24 02:47:00,
2013-03-23 22:52:00,37.6,25.0,29.77,WNW,302,1.0,8.0,60,0.00,,,0.00,LWC V2.10 B1702,2013-03-24 02:52:00,
2013-03-23 22:57:00,37.6,25.0,29.77,WNW,294,5.0,5.0,60,0.00,,,0.00,LWC V2.10 B1702,2013-03-24 02:57:00,
2013-03-23 23:02:00,37.5,25.3,29.77,WNW,303,3.0,6.0,61,0.00,,,0.00,LWC V2.10 B1702,2013-03-24 03:02:00,
2013-03-23 23:07:00,37.4,26.0,29.77,NW,305,0.0,2.0,63,0.00,,,0.00,LWC V2.10 B1702,2013-03-24 03:07:00,
2013-03-23 23:12:00,37.3,25.1,29.77,West,280,2.0,6.0,61,0.00,,,0.00,LWC V2.10 B1702,2013-03-24 03:12:00,
2013-03-23 23:17:00,37.3,25.1,29.77,WNW,299,4.0,4.0,61,0.00,,,0.00,LWC V2.10 B1702,2013-03-24 03:17:00,
2013-03-23 23:22:00,37.2,25.0,29.77,NNW,338,4.0,6.0,61,0.00,,,0.00,LWC V2.10 B1702,2013-03-24 03:22:00,
2013-03-23 23:27:00,37.2,24.6,29.78,WNW,284,1.0,7.0,60,0.00,,,0.00,LWC V2.10 B1702,2013-03-24 03:27:00,
2013-03-23 23:32:00,37.2,24.6,29.78,WNW,284,8.0,8.0,60,0.00,,,0.00,LWC V2.10 B1702,2013-03-24 03:32:00,
2013-03-23 23:37:00,37.2,24.6,29.78,NNW,327,4.0,8.0,60,0.00,,,0.00,LWC V2.10 B1702,2013-03-24 03:37:00,
2013-03-23 23:42:00,37.1,24.5,29.78,NNW,329,5.0,9.0,60,0.00,,,0.00,LWC V2.10 B1702,2013-03-24 03:42:00,
2013-03-23 23:47:00,37.2,24.6,29.78,NW,321,6.0,7.0,60,0.00,,,0.00,LWC V2.10 B1702,2013-03-24 03:47:00,
2013-03-23 23:52:00,37.2,24.6,29.77,NW,323,3.0,6.0,60,0.00,,,0.00,LWC V2.10 B1702,2013-03-24 03:52:00,
2013-03-23 23:57:00,37.1,24.5,29.78,WNW,292,6.0,6.0,60,0.00,,,0.00,LWC V2.10 B1702,2013-03-24 03:57:00,